Quick links : Home Page : Contact Us : Index : Site Map : Search Site : Ephemerides


186P/Garradd

Orbital Elements

The following orbital elements are taken from MPC 59045:
186P/Garradd
Epoch 2008 Apr. 4.0 TT = JDT 2454560.5
T 2008 Mar. 20.5030 TT                                  MPC
q   4.263475             (2000.0)            P               Q
n   0.0926746      Peri.  278.7443      -0.3319242      +0.9077112
a   4.836104       Node   327.8545      -0.5570935      -0.4082184
e   0.118407       Incl.   28.8439      -0.7612314      -0.0970473
P  10.6
From 49 observations 1975-2007, mean residual 0".6.
Elements are also available for the current standard epoch:
186P/Garradd
Epoch 2008 Nov. 30.0 TT = JDT 2454800.5
T 2008 Mar. 23.3658 TT                                  MPC
q   4.264063             (2000.0)            P               Q
n   0.0924490      Peri.  279.1100      -0.3266640      +0.9095128
a   4.843967       Node   327.8136      -0.5593533      -0.4052698
e   0.119717       Incl.   28.8535      -0.7618494      -0.0924278
P  10.7
An explanation of the orbital elements is available.

These orbital elements are also available in forms suitable for loading into a number of popular planetarium-type software programs.


Ephemeris

The following ephemeris is at intervals of five days. A daily ephemeris covering the same time interval is also available.

Personalized ephemerides for this (and other) objects may be generated using the Minor Planet & Comet Ephemeris Service.

Recent magnitude estimates for this comet (as reported to the ICQ) may be available.

Date    TT    R. A. (2000) Decl.     Delta      r     Elong.  Phase   m1    m2

WARNING!

This comet gets close to the sun during the period covered in the ephemeris below. Observers are warned to be wary of observing comets near the sun. NEVER point any kind of optical instrument at the sun--instant blindness will be the probable result.

2008 08 22 16 27.20 -49 54.0 3.952 4.286 102.5 13.3 16.8 2008 08 27 16 30.15 -49 20.4 4.017 4.288 98.7 13.5 16.8 2008 09 01 16 33.55 -48 48.1 4.084 4.289 94.9 13.6 16.9 2008 09 06 16 37.36 -48 17.1 4.152 4.291 91.1 13.6 16.9 2008 09 11 16 41.55 -47 47.5 4.220 4.292 87.3 13.5 17.0 2008 09 16 16 46.08 -47 19.2 4.288 4.294 83.6 13.5 17.0 2008 09 21 16 50.94 -46 52.1 4.357 4.296 79.9 13.3 17.0 2008 09 26 16 56.10 -46 26.3 4.425 4.297 76.2 13.1 17.1 2008 10 01 17 01.53 -46 01.5 4.492 4.299 72.5 12.8 17.1 2008 10 06 17 07.21 -45 37.7 4.559 4.301 68.9 12.5 17.1 2008 10 11 17 13.11 -45 14.8 4.623 4.303 65.3 12.2 17.2 2008 10 16 17 19.23 -44 52.7 4.686 4.305 61.7 11.8 17.2 2008 10 21 17 25.52 -44 31.3 4.747 4.307 58.2 11.3 17.2 2008 10 26 17 31.98 -44 10.5 4.806 4.309 54.7 10.9 17.3 2008 10 31 17 38.60 -43 50.1 4.862 4.311 51.2 10.3 17.3 2008 11 05 17 45.34 -43 30.1 4.916 4.313 47.8 9.8 17.3 2008 11 10 17 52.19 -43 10.4 4.966 4.315 44.4 9.2 17.3 2008 11 15 17 59.14 -42 50.9 5.013 4.317 41.1 8.7 17.4 2008 11 20 18 06.17 -42 31.5 5.057 4.320 37.8 8.1 17.4 2008 11 25 18 13.26 -42 12.2 5.098 4.322 34.6 7.5 17.4 2008 11 30 18 20.40 -41 52.8 5.134 4.324 31.5 6.8 17.4 2008 12 05 18 27.58 -41 33.4 5.166 4.326 28.5 6.2 17.4 2008 12 10 18 34.77 -41 13.9 5.195 4.329 25.7 5.7 17.4 2008 12 15 18 41.97 -40 54.3 5.219 4.331 23.1 5.1 17.5 2008 12 20 18 49.16 -40 34.6 5.239 4.334 20.8 4.6 17.5 2008 12 25 18 56.33 -40 14.6 5.255 4.336 19.0 4.2 17.5 2008 12 30 19 03.46 -39 54.6 5.266 4.339 17.6 3.9 17.5 2009 01 04 19 10.55 -39 34.3 5.272 4.341 17.0 3.8 17.5 2009 01 09 19 17.57 -39 13.9 5.274 4.344 17.1 3.8 17.5 2009 01 14 19 24.52 -38 53.4 5.271 4.347 18.0 4.0 17.5 2009 01 19 19 31.38 -38 32.8 5.264 4.349 19.5 4.3 17.5 2009 01 24 19 38.15 -38 12.2 5.253 4.352 21.5 4.8 17.5 2009 01 29 19 44.81 -37 51.6 5.236 4.355 24.0 5.3 17.5 2009 02 03 19 51.35 -37 31.0 5.216 4.358 26.7 5.8 17.5 2009 02 08 19 57.76 -37 10.5 5.191 4.361 29.6 6.4 17.5 2009 02 13 20 04.02 -36 50.2 5.161 4.363 32.7 7.0 17.5 2009 02 18 20 10.13 -36 30.2 5.128 4.366 35.9 7.6 17.5 2009 02 23 20 16.08 -36 10.4 5.090 4.369 39.3 8.2 17.4 2009 02 28 20 21.85 -35 51.1 5.049 4.372 42.7 8.8 17.4 2009 03 05 20 27.43 -35 32.3 5.003 4.375 46.2 9.4 17.4 2009 03 10 20 32.82 -35 14.0 4.955 4.378 49.7 10.0 17.4 2009 03 15 20 37.99 -34 56.4 4.903 4.381 53.3 10.5 17.4 2009 03 20 20 42.93 -34 39.6 4.847 4.385 57.0 11.0 17.3 2009 03 25 20 47.64 -34 23.6 4.789 4.388 60.7 11.4 17.3 2009 03 30 20 52.10 -34 08.6 4.729 4.391 64.4 11.8 17.3 2009 04 04 20 56.29 -33 54.5 4.665 4.394 68.3 12.2 17.3 2009 04 09 21 00.21 -33 41.6 4.600 4.398 72.1 12.5 17.2 2009 04 14 21 03.83 -33 29.8 4.534 4.401 76.0 12.8 17.2 2009 04 19 21 07.14 -33 19.3 4.466 4.404 80.0 13.0 17.2 2009 04 24 21 10.13 -33 10.2 4.396 4.408 84.1 13.1 17.2 2009 04 29 21 12.77 -33 02.4 4.326 4.411 88.2 13.2 17.1 2009 05 04 21 15.05 -32 56.0 4.256 4.414 92.4 13.2 17.1 2009 05 09 21 16.96 -32 51.0 4.187 4.418 96.6 13.1 17.1 2009 05 14 21 18.48 -32 47.4 4.117 4.421 100.9 13.0 17.0 2009 05 19 21 19.59 -32 45.2 4.049 4.425 105.3 12.7 17.0 2009 05 24 21 20.29 -32 44.3 3.983 4.429 109.7 12.4 17.0 2009 05 29 21 20.55 -32 44.7 3.918 4.432 114.3 12.0 16.9 2009 06 03 21 20.36 -32 46.2 3.856 4.436 118.8 11.6 16.9 2009 06 08 21 19.73 -32 48.6 3.798 4.439 123.5 11.0 16.9 2009 06 13 21 18.66 -32 51.7 3.743 4.443 128.2 10.3 16.8 2009 06 18 21 17.15 -32 55.4 3.692 4.447 133.0 9.6 16.8 2009 06 23 21 15.20 -32 59.3 3.645 4.451 137.8 8.8 16.8 2009 06 28 21 12.84 -33 03.0 3.604 4.454 142.5 8.0 16.8 2009 07 03 21 10.09 -33 06.4 3.569 4.458 147.3 7.1 16.8 2009 07 08 21 07.01 -33 09.0 3.539 4.462 151.9 6.2 16.7 2009 07 13 21 03.63 -33 10.4 3.516 4.466 156.3 5.3 16.7 2009 07 18 21 00.00 -33 10.5 3.500 4.470 160.2 4.4 16.7 2009 07 23 20 56.18 -33 08.8 3.491 4.474 163.3 3.7 16.7 2009 07 28 20 52.25 -33 05.2 3.489 4.478 165.0 3.4 16.7 2009 08 02 20 48.28 -32 59.5 3.494 4.482 164.8 3.4 16.7 2009 08 07 20 44.35 -32 51.4 3.507 4.486 162.8 3.8 16.7 2009 08 12 20 40.52 -32 41.1 3.527 4.490 159.4 4.5 16.8 2009 08 17 20 36.86 -32 28.5 3.553 4.494 155.4 5.4 16.8 2009 08 22 20 33.43 -32 13.7 3.587 4.498 150.8 6.3 16.8 2009 08 27 20 30.29 -31 56.7 3.628 4.502 146.1 7.2 16.8 2009 09 01 20 27.49 -31 37.8 3.674 4.506 141.3 8.1 16.9 2009 09 06 20 25.07 -31 17.2 3.726 4.510 136.4 8.9 16.9 2009 09 11 20 23.05 -30 55.0 3.784 4.514 131.5 9.6 16.9 2009 09 16 20 21.45 -30 31.5 3.846 4.518 126.6 10.3 17.0 2009 09 21 20 20.28 -30 06.8 3.913 4.523 121.7 10.9 17.0 2009 09 26 20 19.54 -29 41.1 3.983 4.527 116.9 11.4 17.1

Back to Observable Comets

MPC CBAT ICQ

Valid HTML 4.01!